Time,TemperatureF,DewpointF,PressureIn,WindDirection,WindDirectionDegrees,WindSpeedMPH,WindSpeedGustMPH,Humidity,HourlyPrecipIn,Conditions,Clouds,dailyrainin,SoftwareType,DateUTC
2016-12-08 00:00:00,30.2,27.7,30.08,WNW,295,0.0,0.0,90,0.00,,,0.00,meteohub,2016-12-08 05:00:00,
2016-12-08 00:05:00,30.2,27.7,30.08,WNW,295,0.0,0.0,90,0.00,,,0.00,meteohub,2016-12-08 05:05:00,
2016-12-08 00:10:00,30.0,27.5,30.08,WNW,295,0.0,0.0,90,0.00,,,0.00,meteohub,2016-12-08 05:10:00,
2016-12-08 00:15:00,29.8,27.3,30.08,WNW,295,0.0,0.0,90,0.00,,,0.00,meteohub,2016-12-08 05:15:00,
2016-12-08 00:20:00,29.7,27.1,30.08,WNW,295,0.0,0.0,90,0.00,,,0.00,meteohub,2016-12-08 05:20:00,
2016-12-08 00:25:00,29.5,26.6,30.08,WNW,295,0.0,0.0,89,0.00,,,0.00,meteohub,2016-12-08 05:25:00,
2016-12-08 00:30:00,29.5,27.0,30.08,WNW,295,0.0,0.0,90,0.00,,,0.00,meteohub,2016-12-08 05:30:00,
2016-12-08 00:35:00,29.5,27.0,30.08,WNW,295,0.0,0.0,90,0.00,,,0.00,meteohub,2016-12-08 05:35:00,
2016-12-08 00:40:00,29.5,27.0,30.07,WNW,295,0.0,0.0,90,0.00,,,0.00,meteohub,2016-12-08 05:40:00,
2016-12-08 00:45:00,29.5,27.0,30.07,WNW,295,0.0,0.0,90,0.00,,,0.00,meteohub,2016-12-08 05:45:00,
2016-12-08 00:50:00,29.7,27.1,30.08,WNW,295,0.0,0.0,90,0.00,,,0.00,meteohub,2016-12-08 05:50:00,
2016-12-08 00:55:00,29.7,27.1,30.08,WNW,295,0.0,0.0,90,0.00,,,0.00,meteohub,2016-12-08 05:55:00,
2016-12-08 01:01:00,29.7,27.1,30.08,WNW,295,0.0,0.0,90,0.00,,,0.00,meteohub,2016-12-08 06:01:00,
2016-12-08 01:06:00,29.7,27.1,30.07,WNW,295,0.0,0.0,90,0.00,,,0.00,meteohub,2016-12-08 06:06:00,
2016-12-08 01:11:00,29.5,27.0,30.07,WNW,295,0.0,0.0,90,0.00,,,0.00,meteohub,2016-12-08 06:11:00,
2016-12-08 01:16:00,29.5,27.0,30.07,WNW,295,0.0,0.0,90,0.00,,,0.00,meteohub,2016-12-08 06:16:00,
2016-12-08 01:21:00,29.8,27.3,30.07,SSW,210,1.0,0.0,90,0.00,,,0.00,meteohub,2016-12-08 06:21:00,
2016-12-08 01:26:00,29.8,27.3,30.07,SSW,210,0.0,1.0,90,0.00,,,0.00,meteohub,2016-12-08 06:26:00,
2016-12-08 01:31:00,29.8,27.3,30.07,SSW,210,0.0,1.0,90,0.00,,,0.00,meteohub,2016-12-08 06:31:00,
2016-12-08 01:36:00,30.0,27.5,30.07,SSW,210,0.0,1.0,90,0.00,,,0.00,meteohub,2016-12-08 06:36:00,
2016-12-08 01:41:00,29.8,27.3,30.07,SSW,210,0.0,0.0,90,0.00,,,0.00,meteohub,2016-12-08 06:41:00,
2016-12-08 01:46:00,29.8,27.3,30.07,SSW,210,0.0,0.0,90,0.00,,,0.00,meteohub,2016-12-08 06:46:00,
2016-12-08 01:51:00,29.8,27.3,30.07,SSW,210,0.0,0.0,90,0.00,,,0.00,meteohub,2016-12-08 06:51:00,
2016-12-08 01:56:00,29.8,27.3,30.07,SSW,210,0.0,0.0,90,0.00,,,0.00,meteohub,2016-12-08 06:56:00,
2016-12-08 02:01:00,29.8,27.3,30.07,SSW,210,0.0,0.0,90,0.00,,,0.00,meteohub,2016-12-08 07:01:00,
2016-12-08 02:06:00,29.8,27.3,30.07,SSW,210,0.0,0.0,90,0.00,,,0.00,meteohub,2016-12-08 07:06:00,
2016-12-08 02:11:00,30.0,27.5,30.07,SSW,210,0.0,0.0,90,0.00,,,0.00,meteohub,2016-12-08 07:11:00,
2016-12-08 02:16:00,30.0,27.7,30.07,SSW,210,0.0,0.0,91,0.00,,,0.00,meteohub,2016-12-08 07:16:00,
2016-12-08 02:21:00,30.4,28.0,30.08,SSW,210,0.0,0.0,91,0.00,,,0.00,meteohub,2016-12-08 07:21:00,
2016-12-08 02:26:00,30.4,28.0,30.07,SSW,210,0.0,0.0,91,0.00,,,0.00,meteohub,2016-12-08 07:26:00,
2016-12-08 02:36:00,30.9,28.6,30.07,SSW,210,0.0,0.0,91,0.00,,,0.00,meteohub,2016-12-08 07:36:00,
2016-12-08 02:41:00,31.3,28.9,30.06,SSW,210,0.0,0.0,91,0.00,,,0.00,meteohub,2016-12-08 07:41:00,
2016-12-08 02:46:00,31.3,28.9,30.07,SSW,210,0.0,0.0,91,0.00,,,0.00,meteohub,2016-12-08 07:46:00,
2016-12-08 02:51:00,31.5,29.1,30.07,SSW,210,0.0,0.0,91,0.00,,,0.00,meteohub,2016-12-08 07:51:00,
2016-12-08 02:56:00,31.5,29.1,30.07,SSW,210,0.0,0.0,91,0.00,,,0.00,meteohub,2016-12-08 07:56:00,
2016-12-08 03:01:00,31.6,29.3,30.07,SSW,210,0.0,0.0,91,0.00,,,0.00,meteohub,2016-12-08 08:01:00,
2016-12-08 03:06:00,31.6,29.3,30.07,SSW,210,0.0,0.0,91,0.00,,,0.00,meteohub,2016-12-08 08:06:00,
2016-12-08 03:11:00,31.8,29.5,30.07,SSW,210,0.0,0.0,91,0.00,,,0.00,meteohub,2016-12-08 08:11:00,
2016-12-08 03:16:00,32.0,29.7,30.07,SSW,210,0.0,0.0,91,0.00,,,0.00,meteohub,2016-12-08 08:16:00,
2016-12-08 03:21:00,32.2,29.8,30.07,SSW,210,0.0,0.0,91,0.00,,,0.00,meteohub,2016-12-08 08:21:00,
2016-12-08 03:26:00,32.2,29.8,30.07,SSW,210,0.0,0.0,91,0.00,,,0.00,meteohub,2016-12-08 08:26:00,
2016-12-08 03:32:00,32.4,30.0,30.07,SSW,210,0.0,0.0,91,0.00,,,0.00,meteohub,2016-12-08 08:32:00,
2016-12-08 03:37:00,32.4,30.0,30.06,SSW,210,0.0,0.0,91,0.00,,,0.00,meteohub,2016-12-08 08:37:00,
2016-12-08 03:42:00,32.5,30.2,30.06,SSW,210,0.0,0.0,91,0.00,,,0.00,meteohub,2016-12-08 08:42:00,
2016-12-08 03:47:00,32.7,30.4,30.06,SSW,210,0.0,0.0,91,0.00,,,0.00,meteohub,2016-12-08 08:47:00,
2016-12-08 03:52:00,32.7,30.4,30.06,SSW,210,0.0,0.0,91,0.00,,,0.00,meteohub,2016-12-08 08:52:00,
2016-12-08 03:57:00,32.7,30.4,30.06,SSW,210,0.0,0.0,91,0.00,,,0.00,meteohub,2016-12-08 08:57:00,
2016-12-08 04:02:00,32.7,30.4,30.05,SSW,210,0.0,0.0,91,0.00,,,0.00,meteohub,2016-12-08 09:02:00,
2016-12-08 04:07:00,32.7,30.4,30.06,SSW,210,0.0,0.0,91,0.00,,,0.00,meteohub,2016-12-08 09:07:00,
2016-12-08 04:12:00,32.7,30.4,30.06,SSW,210,0.0,0.0,91,0.00,,,0.00,meteohub,2016-12-08 09:12:00,
2016-12-08 04:17:00,32.9,30.6,30.06,SSW,210,0.0,0.0,91,0.00,,,0.00,meteohub,2016-12-08 09:17:00,
2016-12-08 04:22:00,32.9,30.6,30.06,SSW,210,0.0,0.0,91,0.00,,,0.00,meteohub,2016-12-08 09:22:00,
2016-12-08 04:27:00,32.9,30.6,30.05,SSW,210,0.0,0.0,91,0.00,,,0.00,meteohub,2016-12-08 09:27:00,
2016-12-08 04:32:00,33.1,30.7,30.05,SSW,210,0.0,0.0,91,0.00,,,0.00,meteohub,2016-12-08 09:32:00,
2016-12-08 04:37:00,33.1,30.7,30.05,SSW,210,0.0,0.0,91,0.00,,,0.00,meteohub,2016-12-08 09:37:00,
2016-12-08 04:47:00,34.0,31.6,30.05,SSW,210,0.0,0.0,91,0.00,,,0.00,meteohub,2016-12-08 09:47:00,
2016-12-08 04:52:00,34.0,31.6,30.04,SSW,210,0.0,0.0,91,0.00,,,0.00,meteohub,2016-12-08 09:52:00,
2016-12-08 04:57:00,34.2,31.8,30.05,SSW,210,0.0,0.0,91,0.00,,,0.00,meteohub,2016-12-08 09:57:00,
2016-12-08 05:02:00,34.2,31.8,30.05,SSW,210,0.0,0.0,91,0.00,,,0.00,meteohub,2016-12-08 10:02:00,
2016-12-08 05:07:00,34.3,32.0,30.05,SSW,210,0.0,0.0,91,0.00,,,0.00,meteohub,2016-12-08 10:07:00,
2016-12-08 05:12:00,34.5,32.2,30.04,SSW,210,0.0,0.0,91,0.00,,,0.00,meteohub,2016-12-08 10:12:00,
2016-12-08 05:17:00,34.5,32.2,30.05,SSW,210,0.0,0.0,91,0.00,,,0.00,meteohub,2016-12-08 10:17:00,
2016-12-08 05:22:00,34.7,32.4,30.05,SSW,210,0.0,0.0,91,0.00,,,0.00,meteohub,2016-12-08 10:22:00,
2016-12-08 05:27:00,34.9,32.5,30.05,SSW,210,0.0,0.0,91,0.00,,,0.00,meteohub,2016-12-08 10:27:00,
2016-12-08 05:32:00,34.9,32.5,30.05,SSW,210,0.0,0.0,91,0.00,,,0.00,meteohub,2016-12-08 10:32:00,
2016-12-08 05:37:00,35.2,32.9,30.06,SSW,210,0.0,0.0,91,0.00,,,0.00,meteohub,2016-12-08 10:37:00,
2016-12-08 05:42:00,35.4,33.1,30.05,SSW,210,0.0,0.0,91,0.00,,,0.00,meteohub,2016-12-08 10:42:00,
2016-12-08 05:47:00,35.4,32.7,30.06,SSW,210,0.0,0.0,90,0.00,,,0.00,meteohub,2016-12-08 10:47:00,
2016-12-08 05:52:00,35.8,33.1,30.06,SSW,210,0.0,0.0,90,0.00,,,0.00,meteohub,2016-12-08 10:52:00,
2016-12-08 05:57:00,36.0,33.3,30.06,SSW,210,0.0,0.0,90,0.00,,,0.00,meteohub,2016-12-08 10:57:00,
2016-12-08 06:02:00,36.0,33.3,30.06,SSW,210,0.0,0.0,90,0.00,,,0.00,meteohub,2016-12-08 11:02:00,
2016-12-08 06:07:00,36.0,33.3,30.06,SSW,210,0.0,0.0,90,0.00,,,0.00,meteohub,2016-12-08 11:07:00,
2016-12-08 06:12:00,36.0,33.3,30.06,SSW,210,0.0,0.0,90,0.00,,,0.00,meteohub,2016-12-08 11:12:00,
2016-12-08 06:17:00,36.0,33.3,30.06,SSW,210,0.0,0.0,90,0.00,,,0.00,meteohub,2016-12-08 11:17:00,
2016-12-08 06:22:00,36.1,33.4,30.06,SSW,210,0.0,0.0,90,0.00,,,0.00,meteohub,2016-12-08 11:22:00,
2016-12-08 06:27:00,36.1,33.4,30.06,SSW,210,0.0,0.0,90,0.00,,,0.00,meteohub,2016-12-08 11:27:00,
2016-12-08 06:32:00,36.1,33.4,30.06,SSW,210,0.0,0.0,90,0.00,,,0.00,meteohub,2016-12-08 11:32:00,
2016-12-08 06:37:00,36.1,33.4,30.06,SSW,210,0.0,1.0,90,0.00,,,0.00,meteohub,2016-12-08 11:37:00,
2016-12-08 06:42:00,36.3,33.6,30.06,North,8,0.0,1.0,90,0.00,,,0.00,meteohub,2016-12-08 11:42:00,
2016-12-08 06:47:00,36.7,33.8,30.06,North,9,0.0,1.0,89,0.00,,,0.00,meteohub,2016-12-08 11:47:00,
2016-12-08 06:52:00,36.9,34.0,30.06,North,9,0.0,1.0,89,0.00,,,0.00,meteohub,2016-12-08 11:52:00,
2016-12-08 06:57:00,36.9,33.6,30.05,North,8,0.0,1.0,88,0.00,,,0.00,meteohub,2016-12-08 11:57:00,
2016-12-08 07:02:00,36.9,33.6,30.06,North,9,0.0,1.0,88,0.00,,,0.00,meteohub,2016-12-08 12:02:00,
2016-12-08 07:07:00,36.7,33.4,30.05,North,9,0.0,1.0,88,0.00,,,0.00,meteohub,2016-12-08 12:07:00,
2016-12-08 07:12:00,36.9,33.4,30.06,North,9,0.0,0.0,87,0.00,,,0.00,meteohub,2016-12-08 12:12:00,
2016-12-08 07:17:00,37.6,33.3,30.06,WNW,294,0.0,1.0,84,0.00,,,0.00,meteohub,2016-12-08 12:17:00,
2016-12-08 07:23:00,38.3,32.0,30.06,WNW,291,0.0,2.0,78,0.00,,,0.00,meteohub,2016-12-08 12:23:00,
2016-12-08 07:28:00,38.7,31.8,30.05,WNW,291,0.0,2.0,76,0.00,,,0.00,meteohub,2016-12-08 12:28:00,
2016-12-08 07:33:00,39.0,31.8,30.05,WNW,291,0.0,1.0,75,0.00,,,0.00,meteohub,2016-12-08 12:33:00,
2016-12-08 07:38:00,39.2,32.0,30.05,WNW,291,0.0,1.0,75,0.00,,,0.00,meteohub,2016-12-08 12:38:00,
2016-12-08 07:43:00,39.4,31.5,30.05,WNW,291,0.0,1.0,73,0.00,,,0.00,meteohub,2016-12-08 12:43:00,
2016-12-08 07:48:00,39.6,31.6,30.05,WNW,291,0.0,1.0,73,0.00,,,0.00,meteohub,2016-12-08 12:48:00,
2016-12-08 07:53:00,39.6,32.0,30.06,West,281,1.0,1.0,74,0.00,,,0.00,meteohub,2016-12-08 12:53:00,
2016-12-08 07:58:00,39.4,32.7,30.05,SW,222,0.0,1.0,77,0.00,,,0.00,meteohub,2016-12-08 12:58:00,
2016-12-08 08:03:00,39.4,33.4,30.06,SW,222,0.0,1.0,79,0.00,,,0.00,meteohub,2016-12-08 13:03:00,
2016-12-08 08:08:00,39.0,33.6,30.06,SW,222,0.0,1.0,81,0.00,,,0.00,meteohub,2016-12-08 13:08:00,
2016-12-08 08:13:00,38.8,32.9,30.06,SW,222,0.0,1.0,79,0.00,,,0.00,meteohub,2016-12-08 13:13:00,
2016-12-08 08:18:00,39.0,32.7,30.07,WNW,282,1.0,1.0,78,0.00,,,0.00,meteohub,2016-12-08 13:18:00,
2016-12-08 08:23:00,39.7,32.5,30.07,WNW,283,0.0,0.0,75,0.00,,,0.00,meteohub,2016-12-08 13:23:00,
2016-12-08 08:28:00,40.1,32.9,30.06,WNW,282,0.0,2.0,75,0.00,,,0.00,meteohub,2016-12-08 13:28:00,
2016-12-08 08:33:00,40.6,31.6,30.07,WNW,297,1.0,3.0,70,0.00,,,0.00,meteohub,2016-12-08 13:33:00,
2016-12-08 08:38:00,41.2,32.9,30.06,WNW,291,0.0,3.0,72,0.00,,,0.00,meteohub,2016-12-08 13:38:00,
2016-12-08 08:43:00,41.2,31.8,30.06,West,278,0.0,3.0,69,0.00,,,0.00,meteohub,2016-12-08 13:43:00,
2016-12-08 08:48:00,41.4,32.4,30.06,West,278,0.0,2.0,70,0.00,,,0.00,meteohub,2016-12-08 13:48:00,
2016-12-08 08:53:00,41.4,32.7,30.07,West,278,0.0,1.0,71,0.00,,,0.00,meteohub,2016-12-08 13:53:00,
2016-12-08 08:58:00,41.4,31.6,30.06,West,278,0.0,0.0,68,0.00,,,0.00,meteohub,2016-12-08 13:58:00,
2016-12-08 09:03:00,41.7,32.0,30.06,West,278,0.0,1.0,68,0.00,,,0.00,meteohub,2016-12-08 14:03:00,
2016-12-08 09:08:00,42.1,32.7,30.06,East,93,0.0,1.0,69,0.00,,,0.00,meteohub,2016-12-08 14:08:00,
2016-12-08 09:13:00,42.3,32.2,30.07,NE,52,0.0,1.0,67,0.00,,,0.00,meteohub,2016-12-08 14:13:00,
2016-12-08 09:18:00,42.4,31.1,30.07,NW,305,0.0,3.0,64,0.00,,,0.00,meteohub,2016-12-08 14:18:00,
2016-12-08 09:23:00,42.6,30.6,30.07,WNW,289,1.0,3.0,62,0.00,,,0.00,meteohub,2016-12-08 14:23:00,
2016-12-08 09:28:00,42.6,29.7,30.07,WNW,293,3.0,3.0,60,0.00,,,0.00,meteohub,2016-12-08 14:28:00,
2016-12-08 09:33:00,43.0,29.7,30.06,WNW,285,1.0,4.0,59,0.00,,,0.00,meteohub,2016-12-08 14:33:00,
2016-12-08 09:38:00,43.0,29.7,30.07,West,262,0.0,4.0,59,0.00,,,0.00,meteohub,2016-12-08 14:38:00,
2016-12-08 09:43:00,43.0,28.8,30.06,WNW,302,4.0,8.0,57,0.00,,,0.00,meteohub,2016-12-08 14:43:00,
2016-12-08 09:48:00,43.0,28.8,30.06,South,173,1.0,8.0,57,0.00,,,0.00,meteohub,2016-12-08 14:48:00,
2016-12-08 09:53:00,42.8,28.6,30.06,West,267,2.0,8.0,57,0.00,,,0.00,meteohub,2016-12-08 14:53:00,
2016-12-08 09:58:00,42.8,28.6,30.07,West,281,3.0,6.0,57,0.00,,,0.00,meteohub,2016-12-08 14:58:00,
2016-12-08 10:03:00,42.8,28.6,30.07,NNW,336,3.0,6.0,57,0.00,,,0.00,meteohub,2016-12-08 15:03:00,
2016-12-08 10:08:00,42.8,29.1,30.07,WNW,284,1.0,6.0,58,0.00,,,0.00,meteohub,2016-12-08 15:08:00,
2016-12-08 10:13:00,43.0,29.7,30.07,SW,235,0.0,6.0,59,0.00,,,0.00,meteohub,2016-12-08 15:13:00,
2016-12-08 10:18:00,43.0,29.7,30.07,SE,142,1.0,6.0,59,0.00,,,0.00,meteohub,2016-12-08 15:18:00,
2016-12-08 10:23:00,43.0,28.8,30.07,WSW,257,1.0,3.0,57,0.00,,,0.00,meteohub,2016-12-08 15:23:00,
2016-12-08 10:28:00,43.0,28.8,30.07,WSW,242,0.0,6.0,57,0.00,,,0.00,meteohub,2016-12-08 15:28:00,
2016-12-08 10:33:00,43.0,28.8,30.07,SSW,211,0.0,6.0,57,0.00,,,0.00,meteohub,2016-12-08 15:33:00,
2016-12-08 10:39:00,43.0,29.3,30.07,SW,222,0.0,5.0,58,0.00,,,0.00,meteohub,2016-12-08 15:39:00,
2016-12-08 10:44:00,43.0,28.8,30.06,WNW,295,0.0,4.0,57,0.00,,,0.00,meteohub,2016-12-08 15:44:00,
2016-12-08 10:49:00,43.0,28.8,30.06,SSW,193,3.0,6.0,57,0.00,,,0.00,meteohub,2016-12-08 15:49:00,
2016-12-08 10:54:00,43.0,28.8,30.06,West,267,1.0,6.0,57,0.00,,,0.00,meteohub,2016-12-08 15:54:00,
2016-12-08 10:59:00,43.0,28.8,30.06,SSW,204,1.0,6.0,57,0.00,,,0.00,meteohub,2016-12-08 15:59:00,
2016-12-08 11:04:00,43.2,27.7,30.06,WNW,294,3.0,4.0,54,0.00,,,0.00,meteohub,2016-12-08 16:04:00,
2016-12-08 11:09:00,43.2,27.7,30.06,WSW,256,1.0,5.0,54,0.00,,,0.00,meteohub,2016-12-08 16:09:00,
2016-12-08 11:14:00,43.2,27.1,30.05,WSW,245,2.0,6.0,53,0.00,,,0.00,meteohub,2016-12-08 16:14:00,
2016-12-08 11:19:00,43.3,27.0,30.05,SSW,198,2.0,6.0,52,0.00,,,0.00,meteohub,2016-12-08 16:19:00,
2016-12-08 11:24:00,43.3,26.4,30.04,West,269,3.0,12.0,51,0.00,,,0.00,meteohub,2016-12-08 16:24:00,
2016-12-08 11:29:00,43.5,27.1,30.04,WNW,290,0.0,12.0,52,0.00,,,0.00,meteohub,2016-12-08 16:29:00,
2016-12-08 11:34:00,43.5,25.7,30.04,West,273,1.0,12.0,49,0.00,,,0.00,meteohub,2016-12-08 16:34:00,
2016-12-08 11:39:00,43.9,27.0,30.03,WSW,253,0.0,9.0,51,0.00,,,0.00,meteohub,2016-12-08 16:39:00,
2016-12-08 11:44:00,44.1,27.1,30.03,WNW,289,2.0,8.0,51,0.00,,,0.00,meteohub,2016-12-08 16:44:00,
2016-12-08 11:49:00,44.1,26.1,30.03,SW,218,4.0,8.0,49,0.00,,,0.00,meteohub,2016-12-08 16:49:00,
2016-12-08 11:54:00,44.2,25.7,30.03,SSE,163,3.0,5.0,48,0.00,,,0.00,meteohub,2016-12-08 16:54:00,
2016-12-08 11:59:00,44.2,25.7,30.03,WSW,255,6.0,8.0,48,0.00,,,0.00,meteohub,2016-12-08 16:59:00,
2016-12-08 12:04:00,44.6,26.1,30.03,NW,319,5.0,9.0,48,0.00,,,0.00,meteohub,2016-12-08 17:04:00,
2016-12-08 12:09:00,44.4,25.5,30.02,West,264,5.0,9.0,47,0.00,,,0.00,meteohub,2016-12-08 17:09:00,
2016-12-08 12:14:00,44.6,25.7,30.02,West,263,3.0,9.0,47,0.00,,,0.00,meteohub,2016-12-08 17:14:00,
2016-12-08 12:19:00,44.6,26.1,30.02,WNW,302,3.0,8.0,48,0.00,,,0.00,meteohub,2016-12-08 17:19:00,
2016-12-08 12:24:00,44.6,26.6,30.01,WNW,293,3.0,7.0,49,0.00,,,0.00,meteohub,2016-12-08 17:24:00,
2016-12-08 12:29:00,44.4,25.9,30.01,NW,304,5.0,7.0,48,0.00,,,0.00,meteohub,2016-12-08 17:29:00,
2016-12-08 12:34:00,44.4,26.4,30.01,WNW,283,1.0,7.0,49,0.00,,,0.00,meteohub,2016-12-08 17:34:00,
2016-12-08 12:39:00,44.8,27.3,30.01,WSW,248,2.0,8.0,50,0.00,,,0.00,meteohub,2016-12-08 17:39:00,
2016-12-08 12:44:00,44.8,26.2,30.01,South,169,4.0,8.0,48,0.00,,,0.00,meteohub,2016-12-08 17:44:00,
2016-12-08 12:49:00,44.8,25.7,30.01,West,264,4.0,9.0,47,0.00,,,0.00,meteohub,2016-12-08 17:49:00,
2016-12-08 12:54:00,44.8,25.3,30.01,WNW,288,6.0,9.0,46,0.00,,,0.00,meteohub,2016-12-08 17:54:00,
2016-12-08 12:59:00,44.8,24.8,30.01,West,273,2.0,9.0,45,0.00,,,0.00,meteohub,2016-12-08 17:59:00,
2016-12-08 13:04:00,44.8,24.8,30.01,SSW,205,6.0,9.0,45,0.00,,,0.00,meteohub,2016-12-08 18:04:00,
2016-12-08 13:09:00,44.6,23.5,30.00,WSW,246,3.0,12.0,43,0.00,,,0.00,meteohub,2016-12-08 18:09:00,
2016-12-08 13:14:00,44.8,24.3,30.00,East,82,4.0,12.0,44,0.00,,,0.00,meteohub,2016-12-08 18:14:00,
2016-12-08 13:19:00,44.6,24.1,30.01,West,277,5.0,12.0,44,0.00,,,0.00,meteohub,2016-12-08 18:19:00,
2016-12-08 13:24:00,44.6,23.0,30.01,WNW,296,4.0,13.0,42,0.00,,,0.00,meteohub,2016-12-08 18:24:00,
2016-12-08 13:29:00,44.6,23.5,30.01,SW,222,2.0,13.0,43,0.00,,,0.00,meteohub,2016-12-08 18:29:00,
2016-12-08 13:34:00,44.4,22.1,30.01,WNW,295,6.0,9.0,41,0.00,,,0.00,meteohub,2016-12-08 18:34:00,
2016-12-08 13:39:00,44.4,22.8,30.01,NW,309,1.0,10.0,42,0.00,,,0.00,meteohub,2016-12-08 18:39:00,
2016-12-08 13:44:00,44.4,22.1,30.01,WNW,285,2.0,10.0,41,0.00,,,0.00,meteohub,2016-12-08 18:44:00,
2016-12-08 13:49:00,44.4,22.1,30.01,West,273,1.0,10.0,41,0.00,,,0.00,meteohub,2016-12-08 18:49:00,
2016-12-08 13:54:00,44.4,23.4,30.01,WNW,288,0.0,10.0,43,0.00,,,0.00,meteohub,2016-12-08 18:54:00,
2016-12-08 13:59:00,44.4,22.8,30.01,NW,313,3.0,10.0,42,0.00,,,0.00,meteohub,2016-12-08 18:59:00,
2016-12-08 14:04:00,44.4,22.1,30.01,WNW,300,3.0,9.0,41,0.00,,,0.00,meteohub,2016-12-08 19:04:00,
2016-12-08 14:09:00,44.4,22.1,30.01,West,274,10.0,10.0,41,0.00,,,0.00,meteohub,2016-12-08 19:09:00,
2016-12-08 14:14:00,44.4,22.1,30.01,SSW,209,3.0,9.0,41,0.00,,,0.00,meteohub,2016-12-08 19:14:00,
2016-12-08 14:19:00,44.4,22.1,30.01,NW,313,3.0,13.0,41,0.00,,,0.00,meteohub,2016-12-08 19:19:00,
2016-12-08 14:24:00,44.6,21.7,30.01,West,267,0.0,13.0,40,0.00,,,0.00,meteohub,2016-12-08 19:24:00,
2016-12-08 14:29:00,44.6,22.3,30.01,NW,313,1.0,7.0,41,0.00,,,0.00,meteohub,2016-12-08 19:29:00,
2016-12-08 14:34:00,44.6,21.2,30.01,WSW,248,3.0,11.0,39,0.00,,,0.00,meteohub,2016-12-08 19:34:00,
2016-12-08 14:39:00,44.6,21.7,30.01,WSW,253,4.0,11.0,40,0.00,,,0.00,meteohub,2016-12-08 19:39:00,
2016-12-08 14:44:00,44.6,21.2,30.01,NE,54,7.0,11.0,39,0.00,,,0.00,meteohub,2016-12-08 19:44:00,
2016-12-08 14:49:00,44.8,21.4,30.01,NW,306,4.0,11.0,39,0.00,,,0.00,meteohub,2016-12-08 19:49:00,
2016-12-08 14:55:00,44.6,21.7,30.02,WSW,249,4.0,9.0,40,0.00,,,0.00,meteohub,2016-12-08 19:55:00,
2016-12-08 15:00:00,44.8,21.4,30.01,WNW,298,1.0,9.0,39,0.00,,,0.00,meteohub,2016-12-08 20:00:00,
2016-12-08 15:05:00,44.8,21.4,30.02,West,263,5.0,10.0,39,0.00,,,0.00,meteohub,2016-12-08 20:05:00,
2016-12-08 15:10:00,44.8,21.9,30.02,WSW,255,1.0,14.0,40,0.00,,,0.00,meteohub,2016-12-08 20:10:00,
2016-12-08 15:15:00,44.6,21.2,30.02,West,263,3.0,14.0,39,0.00,,,0.00,meteohub,2016-12-08 20:15:00,
2016-12-08 15:20:00,44.8,21.4,30.03,East,80,2.0,14.0,39,0.00,,,0.00,meteohub,2016-12-08 20:20:00,
2016-12-08 15:25:00,45.0,22.1,30.03,SE,129,1.0,9.0,40,0.00,,,0.00,meteohub,2016-12-08 20:25:00,
2016-12-08 15:30:00,45.0,21.6,30.04,West,267,7.0,11.0,39,0.00,,,0.00,meteohub,2016-12-08 20:30:00,
2016-12-08 15:35:00,45.0,20.8,30.04,West,262,3.0,15.0,38,0.00,,,0.00,meteohub,2016-12-08 20:35:00,
2016-12-08 15:40:00,45.1,20.5,30.04,WNW,294,12.0,15.0,37,0.00,,,0.00,meteohub,2016-12-08 20:40:00,
2016-12-08 15:45:00,45.0,19.6,30.04,NW,320,6.0,19.0,36,0.00,,,0.00,meteohub,2016-12-08 20:45:00,
2016-12-08 15:50:00,45.0,20.3,30.04,SW,230,14.0,19.0,37,0.00,,,0.00,meteohub,2016-12-08 20:50:00,
2016-12-08 15:55:00,44.6,19.9,30.04,NW,312,1.0,19.0,37,0.00,,,0.00,meteohub,2016-12-08 20:55:00,
2016-12-08 16:00:00,44.4,19.8,30.05,WNW,297,4.0,15.0,37,0.00,,,0.00,meteohub,2016-12-08 21:00:00,
2016-12-08 16:05:00,44.1,20.7,30.05,West,278,1.0,15.0,39,0.00,,,0.00,meteohub,2016-12-08 21:05:00,
2016-12-08 16:10:00,43.9,20.5,30.05,NW,305,3.0,15.0,39,0.00,,,0.00,meteohub,2016-12-08 21:10:00,
2016-12-08 16:15:00,43.5,20.1,30.06,NW,316,5.0,15.0,39,0.00,,,0.00,meteohub,2016-12-08 21:15:00,
2016-12-08 16:20:00,43.3,20.1,30.06,WNW,282,3.0,14.0,39,0.00,,,0.00,meteohub,2016-12-08 21:20:00,
2016-12-08 16:25:00,43.2,19.2,30.06,NW,323,5.0,14.0,38,0.00,,,0.00,meteohub,2016-12-08 21:25:00,
2016-12-08 16:30:00,43.0,19.0,30.06,WNW,296,6.0,14.0,38,0.00,,,0.00,meteohub,2016-12-08 21:30:00,
2016-12-08 16:35:00,42.8,18.9,30.06,WNW,290,5.0,15.0,38,0.00,,,0.00,meteohub,2016-12-08 21:35:00,